Date String (YYYY-MM-DD hh:mm:ss) UTC,Instrument flags,absolute air pressure of the measurement (hPa),sample flow rate (lpm),inlet stack bypass flow (lpm),air temperature of the measurement (°C),ambient temperature measured by the external sensor (°C),aerosol sample conditioner tube jacket temperature (°C),OPC LED temperature (°C),internal box temperature (°C),relative humidity of the measurement (%),span deviation,mass concentration of particles derived from Lorenz-Mie calculation of OPC scattering (μg/m³),mass concentration of particles derived from Lorenz-Mie calculation of OPC scattering (μg/m³),mass concentration of particles derived from Lorenz-Mie calculation of OPC scattering (μg/m³)
DateTimeUTC,F1_M11,P_M11,Q1_M11,Q2_M11,T1_M11,T2_M11,T3_M11,T4_M11,T5_M11,U1_M11,ZSPAN_M11,X2_M11,X0_M11,X1_M11
2024-02-29 18:00:00,SystemResetWarning,0825.3,5.00,000.00,021.2,020.7,000.0,029.2,022.8,10.6,0000.0,0005.53,0012.65,0004.31
2024-02-29 18:01:00,SystemResetWarning,0825.3,4.99,000.00,021.2,020.7,000.0,029.2,022.9,10.6,0000.0,0005.58,0012.79,0004.33
2024-02-29 18:02:00,SystemResetWarning,0825.3,5.00,000.00,021.2,020.8,000.0,029.2,022.9,10.7,0000.0,0005.65,0012.68,0004.34
2024-02-29 18:03:00,SystemResetWarning,0825.3,5.01,000.00,021.2,020.8,000.0,029.2,022.9,10.4,0000.0,0005.65,0012.46,0004.35
2024-02-29 18:04:00,SystemResetWarning,0825.3,5.01,000.00,021.3,020.8,000.0,029.3,022.9,10.5,0000.0,0005.65,0012.86,0004.36
2024-02-29 18:05:00,SystemResetWarning,0825.4,5.00,000.00,021.3,020.8,000.0,029.3,023.0,10.4,0000.0,0005.61,0012.90,0004.35
2024-02-29 18:06:00,SystemResetWarning,0825.4,4.99,000.00,021.3,020.8,000.0,029.3,023.0,10.4,0000.0,0005.66,0013.29,0004.35
2024-02-29 18:07:00,SystemResetWarning,0825.4,4.99,000.00,021.3,020.9,000.0,029.3,023.0,10.5,0000.0,0005.67,0013.55,0004.37
2024-02-29 18:08:00,SystemResetWarning,0825.3,5.00,000.00,021.3,020.9,000.0,029.3,023.0,10.4,0000.0,0005.68,0013.62,0004.38
2024-02-29 18:09:00,SystemResetWarning,0825.3,5.01,000.00,021.4,020.9,000.0,029.4,023.0,10.5,0000.0,0005.72,0013.82,0004.39
2024-02-29 18:10:00,SystemResetWarning,0825.2,5.01,000.00,021.4,020.9,000.0,029.4,023.1,10.3,0000.0,0005.78,0013.58,0004.38
2024-02-29 18:11:00,SystemResetWarning,0825.2,5.01,000.00,021.4,020.9,000.0,029.4,023.1,10.2,0000.0,0005.84,0013.66,0004.39
2024-02-29 18:12:00,SystemResetWarning,0825.3,5.00,000.00,021.4,021.0,000.0,029.4,023.1,10.2,0000.0,0005.82,0013.52,0004.40
2024-02-29 18:13:00,SystemResetWarning,0825.3,4.99,000.00,021.4,021.0,000.0,029.4,023.1,10.1,0000.0,0005.78,0013.82,0004.40
2024-02-29 18:14:00,SystemResetWarning,0825.2,4.99,000.00,021.5,021.0,000.0,029.5,023.1,10.1,0000.0,0005.76,0013.33,0004.41
2024-02-29 18:15:00,SystemResetWarning,0825.2,4.99,000.00,021.5,021.0,000.0,029.5,023.2,10.0,0000.0,0005.77,0013.16,0004.41
2024-02-29 18:16:00,SystemResetWarning,0825.2,5.00,000.00,021.5,021.0,000.0,029.5,023.2,10.2,0000.0,0005.76,0012.70,0004.40
2024-02-29 18:17:00,SystemResetWarning,0825.2,5.00,000.00,021.5,021.1,000.0,029.5,023.2,10.3,0000.0,0005.74,0012.16,0004.39
2024-02-29 18:18:00,SystemResetWarning,0825.2,5.00,000.00,021.5,021.1,000.0,029.5,023.2,10.0,0000.0,0005.76,0012.14,0004.37
2024-02-29 18:19:00,SystemResetWarning,0825.2,5.00,000.00,021.6,021.1,000.0,029.6,023.2,09.9,0000.0,0005.73,0012.11,0004.36
2024-02-29 18:20:00,SystemResetWarning,0825.1,5.01,000.00,021.6,021.1,000.0,029.6,023.3,09.7,0000.0,0005.74,0011.87,0004.35
2024-02-29 18:21:00,SystemResetWarning,0825.1,5.00,000.00,021.6,021.1,000.0,029.6,023.3,09.8,0000.0,0005.77,0012.06,0004.35
2024-02-29 18:22:00,SystemResetWarning,0825.1,5.00,000.00,021.6,021.1,000.0,029.6,023.3,09.6,0000.0,0005.77,0012.15,0004.33
2024-02-29 18:23:00,SystemResetWarning,0825.1,5.00,000.00,021.6,021.2,000.0,029.7,023.3,09.8,0000.0,0005.76,0012.46,0004.32
2024-02-29 18:24:00,SystemResetWarning,0825.1,5.00,000.00,021.7,021.2,000.0,029.7,023.3,09.8,0000.0,0005.79,0012.36,0004.32
2024-02-29 18:25:00,SystemResetWarning,0825.1,5.00,000.00,021.7,021.2,000.0,029.7,023.3,09.6,0000.0,0005.73,0012.49,0004.31
2024-02-29 18:26:00,SystemResetWarning,0825.1,5.00,000.00,021.7,021.2,000.0,029.7,023.4,09.6,0000.0,0005.70,0012.13,0004.32
2024-02-29 18:27:00,SystemResetWarning,0825.1,4.99,000.00,021.7,021.2,000.0,029.7,023.4,09.8,0000.0,0005.75,0012.17,0004.34
2024-02-29 18:28:00,SystemResetWarning,0825.1,5.00,000.00,021.7,021.2,000.0,029.8,023.4,09.8,0000.0,0005.75,0012.17,0004.33
2024-02-29 18:29:00,SystemResetWarning,0825.1,5.00,000.00,021.7,021.2,000.0,029.8,023.4,09.7,0000.0,0005.76,0012.58,0004.35
2024-02-29 18:30:00,SystemResetWarning,0825.1,5.00,000.00,021.7,021.3,000.0,029.8,023.4,09.3,0000.0,0005.79,0013.06,0004.38
2024-02-29 18:31:00,SystemResetWarning,0825.0,5.00,000.00,021.8,021.3,000.0,029.8,023.4,09.2,0000.0,0005.84,0013.21,0004.40
2024-02-29 18:32:00,SystemResetWarning,0824.9,5.00,000.00,021.8,021.3,000.0,029.8,023.5,09.3,0000.0,0005.83,0013.28,0004.42
2024-02-29 18:33:00,SystemResetWarning,0824.9,5.00,000.00,021.8,021.3,000.0,029.8,023.4,09.0,0000.0,0005.81,0013.15,0004.44
2024-02-29 18:34:00,SystemResetWarning,0824.9,5.01,000.00,021.8,021.3,000.0,029.9,023.5,07.9,0000.0,0005.77,0013.26,0004.45
2024-02-29 18:35:00,SystemResetWarning,0824.9,5.00,000.00,021.8,021.3,000.0,029.9,023.5,08.0,0000.0,0005.77,0013.36,0004.46
2024-02-29 18:36:00,SystemResetWarning,0825.0,5.00,000.00,021.8,021.3,000.0,029.9,023.5,09.3,0000.0,0005.84,0013.55,0004.46
2024-02-29 18:37:00,SystemResetWarning,0825.0,5.00,000.00,021.9,021.3,000.0,029.9,023.5,09.5,0000.0,0005.92,0013.76,0004.49
2024-02-29 18:38:00,SystemResetWarning,0825.0,5.00,000.00,021.9,021.4,000.0,029.9,023.5,09.7,0000.0,0005.90,0013.70,0004.49
2024-02-29 18:39:00,SystemResetWarning,0825.0,4.99,000.00,021.9,021.4,000.0,029.9,023.6,09.7,0000.0,0005.94,0013.78,0004.50
2024-02-29 18:40:00,SystemResetWarning,0825.0,5.00,000.00,021.9,021.4,000.0,029.9,023.6,09.1,0000.0,0005.90,0013.48,0004.50
2024-02-29 18:41:00,SystemResetWarning,0825.0,5.01,000.00,021.9,021.4,000.0,030.0,023.6,08.2,0000.0,0005.93,0013.14,0004.49
2024-02-29 18:42:00,SystemResetWarning,0824.9,5.01,000.00,021.9,021.4,000.0,030.0,023.6,09.1,0000.0,0005.88,0013.25,0004.48
2024-02-29 18:43:00,SystemResetWarning,0825.0,4.99,000.00,022.0,021.4,000.0,030.0,023.6,09.2,0000.0,0005.87,0013.11,0004.45
2024-02-29 18:44:00,SystemResetWarning,0825.0,4.99,000.00,022.0,021.5,000.0,030.0,023.6,09.1,0000.0,0005.86,0013.01,0004.43
2024-02-29 18:45:00,SystemResetWarning,0825.0,5.00,000.00,022.0,021.5,000.0,030.0,023.7,09.2,0000.0,0005.86,0012.75,0004.40
2024-02-29 18:46:00,SystemResetWarning,0825.0,5.01,000.00,022.0,021.5,000.0,030.0,023.7,08.9,0000.0,0005.78,0012.20,0004.36
2024-02-29 18:47:00,SystemResetWarning,0825.1,5.00,000.00,022.0,021.5,000.0,030.1,023.7,08.8,0000.0,0005.65,0011.63,0004.30
2024-02-29 18:48:00,SystemResetWarning,0825.0,5.00,000.00,022.0,021.5,000.0,030.1,023.7,08.9,0000.0,0005.53,0011.32,0004.20
2024-02-29 18:49:00,SystemResetWarning,0825.0,4.99,000.00,022.1,021.5,000.0,030.1,023.7,09.2,0000.0,0005.51,0011.41,0004.15
2024-02-29 18:50:00,SystemResetWarning,0824.9,4.99,000.00,022.1,021.6,000.0,030.1,023.8,09.2,0000.0,0005.48,0011.31,0004.13
2024-02-29 18:51:00,SystemResetWarning,0824.9,5.00,000.00,022.1,021.6,000.0,030.1,023.8,09.0,0000.0,0005.49,0011.12,0004.12
2024-02-29 18:52:00,SystemResetWarning,0824.9,5.00,000.00,022.1,021.6,000.0,030.1,023.8,09.1,0000.0,0005.42,0010.92,0004.10
2024-02-29 18:53:00,SystemResetWarning,0824.9,5.01,000.00,022.1,021.6,000.0,030.2,023.8,09.1,0000.0,0005.35,0010.48,0004.07
2024-02-29 18:54:00,SystemResetWarning,0824.9,5.00,000.00,022.1,021.6,000.0,030.2,023.8,09.3,0000.0,0005.27,0010.72,0004.03
2024-02-29 18:55:00,SystemResetWarning,0824.9,4.99,000.00,022.2,021.6,000.0,030.2,023.9,09.4,0000.0,0005.20,0010.85,0004.01
2024-02-29 18:56:00,SystemResetWarning,0824.9,5.00,000.00,022.2,021.7,000.0,030.2,023.9,09.1,0000.0,0005.18,0010.97,0004.00
2024-02-29 18:57:00,SystemResetWarning,0824.9,5.00,000.00,022.2,021.7,000.0,030.2,023.9,09.1,0000.0,0005.24,0011.74,0004.02
2024-02-29 18:58:00,SystemResetWarning,0824.9,5.00,000.00,022.2,021.7,000.0,030.3,023.9,09.0,0000.0,0005.34,0012.35,0004.06
2024-02-29 18:59:00,SystemResetWarning,0824.9,5.00,000.00,022.2,021.7,000.0,030.3,023.9,09.1,0000.0,0005.41,0013.03,0004.11
